GFSSW_925_rhum_060.txt.gz
RH
85 91 91 91 94 95 94 90 86 81 83 89 75 56 70 68 50 49 59 14 20 23 23 19 20 21 22 25 24 26 36 41 32 27 21 28 35 51 56 65 71 66 73 91 88
87 86 86 85 88 91 92 84 83 78 77 74 65 64 65 77 90 91 11 18 23 26 22 24 32 29 32 29 28 29 37 31 27 23 19 20 47 46 57 62 65 70 85 94 89
77 78 76 75 73 72 82 85 81 81 74 73 72 62 59 80 76 24 29 30 25 25 20 17 25 24 25 24 24 27 28 22 19 21 20 27 61 58 62 59 62 69 76 91 91
70 69 73 84 92 72 66 75 79 81 80 74 73 92 56 82 16 33 28 29 33 27 19 19 22 24 22 23 20 22 22 19 18 20 35 50 53 58 58 51 72 85 85 94 92
74 70 65 67 91 75 61 56 69 71 76 77 74 88 92 86 65 13 25 22 31 26 21 21 23 22 20 21 21 20 21 22 22 28 40 51 54 59 83 88 91 97 95 97 90
78 82 80 75 68 69 72 61 47 66 70 76 75 93 90 81 20 24 33 40 29 24 23 20 20 23 22 23 27 24 24 27 25 32 43 48 49 54 57 92 99 94 91 84 90
76 75 74 86 81 69 69 63 50 57 63 69 81 99 85 62 10 38 36 46 37 25 25 23 19 23 23 25 24 24 28 26 22 34 43 47 50 66 62 96 99 99 97 89 87
75 71 70 65 67 66 60 64 53 34 50 72 97 98 85 18 27 27 16 17 21 32 28 25 23 23 24 23 26 26 28 32 22 44 42 44 49 39 85 97 98 98 92 82 83
76 75 74 72 68 58 52 50 39 48 69 86 98 86 80 33 52 26 41 34 16 24 29 25 23 27 25 32 35 36 36 30 27 33 48 48 50 50 90 95 95 97 98 88 91
83 84 84 81 72 71 72 43 48 76 89 95 83 73 46 22 28 33 36 41 27 36 35 33 32 36 39 38 45 40 39 36 34 28 46 56 57 50 94 97 94 94 98 95 98
81 79 78 80 82 82 77 54 69 71 73 80 75 62 45 41 40 36 36 38 30 34 42 37 43 46 34 34 29 29 32 34 33 28 29 36 48 40 60 94 87 93 98 99 98
80 77 74 78 86 86 74 85 74 81 95 64 68 68 60 58 68 39 31 35 36 40 37 37 44 34 30 33 33 33 35 38 34 30 34 37 42 44 66 80 83 87 94 98 99
76 75 76 83 85 81 80 79 83 69 98 67 59 54 38 43 54 42 33 33 37 41 39 41 36 28 32 38 38 39 41 40 38 36 32 40 44 40 48 62 80 89 88 92 94
69 71 79 88 85 82 80 79 59 78 95 65 74 54 37 50 60 30 26 28 37 38 42 40 33 32 34 35 34 41 36 34 37 36 45 35 58 34 36 56 70 75 93 92 93
71 70 82 92 86 91 62 67 61 93 61 17 45 31 44 34 22 38 26 26 40 39 43 44 43 37 38 36 32 31 34 38 38 42 38 38 45 39 59 45 49 64 76 88 92
64 66 84 94 97 88 85 69 80 98 83 36 31 42 54 44 31 35 33 25 28 38 35 35 31 35 31 30 32 29 32 36 47 48 59 44 43 49 40 41 38 43 59 76 91
63 70 83 99 85 75 75 78 97 96 40 28 33 42 44 42 38 35 38 42 38 44 46 33 37 28 25 32 34 34 40 55 55 67 66 44 50 41 35 35 40 37 50 66 81
70 76 83 93 95 91 82 97 94 64 60 38 32 32 40 34 32 32 38 42 36 36 41 39 42 33 28 32 36 41 41 63 60 68 53 52 62 42 33 33 32 38 41 69 81
74 84 93 98 94 93 90 99 79 61 51 58 43 37 44 34 32 29 37 32 30 36 39 44 40 29 30 30 27 36 46 38 62 73 79 60 46 36 29 29 28 42 51 63 78
93 94 86 93 89 92 99 82 77 59 55 56 57 47 50 44 42 36 37 41 29 33 31 42 45 34 28 26 28 32 36 52 63 75 78 59 58 45 33 31 31 33 53 56 66
97 98 73 85 95 99 98 93 60 45 53 59 64 61 51 53 46 41 46 42 44 41 35 36 40 39 30 35 36 36 40 42 51 64 60 62 60 47 36 34 37 31 34 50 58
95 95 90 87 100 100 98 96 49 50 50 56 60 63 53 51 46 52 50 47 36 52 42 39 46 51 36 31 29 30 40 41 57 54 70 72 45 30 36 34 37 36 28 25 48
94 92 89 92 97 98 99 82 59 53 57 59 61 63 53 50 40 48 50 45 39 39 67 53 53 60 53 38 34 36 35 36 51 57 66 64 52 34 35 34 33 32 29 30 30
99 97 99 98 94 84 87 81 76 59 57 64 65 59 58 58 46 54 48 41 40 32 72 67 61 59 62 51 40 41 38 34 44 63 57 64 43 34 36 36 30 34 34 33 29
99 99 89 98 98 81 75 71 77 69 61 59 68 66 65 69 62 52 48 53 46 38 60 67 73 81 72 59 51 42 39 38 42 44 50 39 50 38 35 35 34 31 31 31 28
100 100 98 99 79 94 84 81 67 64 65 71 73 66 64 73 62 62 51 45 50 52 60 66 75 80 66 66 62 60 40 38 39 40 44 43 45 36 34 34 35 35 35 34 31
97 94 97 98 93 97 92 74 72 60 61 56 59 66 73 62 56 52 55 53 54 58 72 78 82 89 84 78 71 64 47 45 39 37 39 44 42 35 36 39 38 36 36 34 32

GFSSW_925_rhum_063.txt.gz
RH
82 84 85 89 85 82 82 81 78 80 78 75 70 64 36 42 27 69 67 11 18 21 27 33 26 23 20 23 22 23 27 28 26 26 18 17 27 42 50 50 60 58 62 68 86
89 88 90 84 80 82 83 73 71 71 72 72 69 70 48 49 73 83 15 15 23 28 30 23 24 24 23 26 24 23 28 25 21 20 17 16 21 24 46 54 55 61 65 85 90
71 74 86 94 86 73 67 64 61 60 67 66 66 71 52 47 64 24 36 34 28 31 22 21 26 25 26 25 25 26 23 22 18 18 18 18 36 40 46 46 48 54 61 76 87
76 77 78 76 91 86 70 63 67 59 57 62 63 79 45 78 9 31 32 31 31 26 22 24 27 25 25 25 22 23 20 18 15 18 23 24 39 52 53 46 63 65 70 78 84
74 73 75 75 79 79 76 71 66 60 59 59 61 78 54 68 39 8 13 22 35 27 22 20 23 24 24 19 20 22 18 19 18 21 26 43 40 44 54 60 78 80 84 84 81
76 78 78 76 74 68 66 62 55 54 54 53 66 71 86 59 14 18 28 37 35 33 24 21 18 20 21 19 20 22 20 20 23 21 31 39 41 48 42 72 88 85 82 78 80
78 78 76 77 74 69 71 70 54 42 38 60 97 80 82 46 7 20 34 42 40 29 26 23 20 21 22 26 24 24 26 24 21 21 30 42 39 48 46 76 90 85 85 79 75
73 75 82 83 81 79 73 70 59 39 45 76 100 91 80 18 13 32 16 26 26 24 30 24 22 22 22 24 25 26 28 29 19 36 40 38 27 30 57 75 93 90 89 78 74
81 79 82 81 78 81 78 66 48 63 73 88 82 80 65 31 51 22 41 35 22 21 31 29 25 26 27 25 30 33 28 28 22 28 40 40 30 35 74 74 73 82 87 81 74
82 78 78 75 74 79 80 63 47 84 85 92 82 54 44 21 28 36 46 41 28 34 34 33 30 30 32 26 27 33 34 32 28 30 35 38 36 28 60 74 66 71 83 86 83
79 78 76 74 79 79 79 52 66 64 70 74 68 48 41 55 49 40 42 45 32 34 44 39 40 38 27 30 27 28 29 29 25 22 26 30 32 26 37 71 72 72 76 89 88
74 75 71 74 84 79 69 76 80 81 91 60 64 63 58 55 67 40 39 38 38 31 38 40 46 34 30 30 27 28 30 30 27 27 27 27 28 24 39 47 60 60 67 79 89
71 69 72 76 87 80 80 85 70 75 90 64 52 57 50 47 54 39 34 37 35 40 36 37 31 32 31 34 33 33 33 34 28 30 28 33 30 27 30 48 57 59 54 66 82
68 69 73 77 85 82 74 84 70 74 94 62 63 58 40 43 54 32 24 30 37 35 40 30 29 34 33 33 30 36 31 29 31 29 35 30 38 30 24 31 47 48 63 66 74
68 67 64 75 99 88 72 73 64 91 78 27 47 34 38 34 26 41 26 28 30 38 39 38 40 35 35 29 30 25 31 32 32 34 39 36 36 29 34 29 24 31 51 60 69
64 60 62 73 90 85 78 71 82 96 74 43 35 46 49 42 36 38 34 26 26 38 40 30 34 30 24 31 29 28 30 38 43 42 52 36 35 29 30 26 25 27 37 52 65
62 66 77 81 90 76 72 74 88 89 43 37 40 33 36 39 46 39 40 37 34 49 53 38 34 30 30 33 32 30 34 45 52 58 50 39 40 28 26 24 27 26 26 44 58
65 76 76 81 84 95 80 90 96 48 62 43 42 39 39 36 37 37 40 37 31 31 37 44 46 34 31 33 35 35 31 48 53 55 42 46 44 27 28 26 28 27 29 36 59
72 71 80 71 78 98 94 94 63 53 55 62 49 43 45 37 38 36 40 37 27 36 37 41 38 27 31 30 29 39 41 32 53 66 58 44 41 30 24 22 24 24 38 44 58
90 92 87 72 76 97 91 79 60 59 56 57 62 54 55 49 48 42 44 38 38 34 33 40 46 33 27 26 28 31 32 40 50 52 59 48 48 33 27 24 24 28 27 40 51
86 95 69 69 96 98 98 89 60 44 43 60 64 64 58 53 45 56 50 34 36 47 34 39 37 38 35 33 34 34 36 42 40 50 47 47 41 41 30 29 28 32 30 28 42
84 98 79 85 98 99 98 89 56 49 48 53 56 61 59 49 46 46 52 47 40 34 48 37 47 49 40 31 28 28 33 36 46 53 59 58 38 29 31 31 34 30 29 26 23
100 91 83 93 97 95 100 85 63 55 53 58 61 64 56 55 51 52 49 40 40 36 39 62 51 53 45 36 34 33 32 38 47 51 46 57 40 30 32 29 30 31 28 26 27
99 99 94 97 90 89 93 90 79 62 58 54 66 59 56 60 50 49 45 38 46 42 64 67 67 58 52 55 53 46 37 33 36 57 47 48 37 31 30 29 24 28 30 27 28
99 98 94 98 90 96 80 74 75 70 57 57 60 61 58 62 58 50 41 45 37 55 52 68 76 73 68 58 58 56 50 40 38 37 42 36 38 31 32 29 25 28 32 30 29
100 100 97 89 93 92 98 77 71 67 60 67 72 65 63 68 57 54 55 48 48 49 53 52 73 76 66 57 53 56 49 43 38 38 39 37 37 30 27 31 32 30 28 27 28
97 98 92 73 88 100 98 76 70 60 61 50 60 65 67 59 56 54 54 54 52 58 59 62 78 76 64 72 58 63 52 45 43 39 39 46 36 30 29 33 36 32 30 32 31

GFSSW_925_rhum_069.txt.gz
RH
91 96 97 96 90 83 80 76 68 63 58 54 47 48 36 23 19 29 15 13 22 28 25 26 26 20 14 12 11 10 14 13 10 9 9 8 11 10 9 13 11 18 24 26 40
85 86 93 95 93 86 86 85 73 64 60 51 40 43 43 33 58 21 25 19 19 20 31 20 22 16 13 12 10 13 12 11 8 8 8 8 9 10 12 11 11 14 20 29 38
70 69 71 85 94 86 69 63 60 56 55 54 41 35 37 44 22 17 28 17 33 32 28 16 17 14 14 10 10 12 13 9 8 8 8 9 9 9 12 13 12 17 18 26 35
77 76 76 76 92 91 81 75 73 63 62 63 59 43 30 63 15 18 11 14 30 37 34 18 17 16 16 13 9 12 10 9 8 7 9 10 9 10 11 13 12 18 22 27 40
74 74 74 72 93 88 87 79 69 62 64 67 66 77 57 30 21 11 12 21 39 35 27 17 18 17 16 11 9 11 10 9 8 7 8 10 11 12 12 10 11 20 33 33 38
69 64 65 73 76 74 71 65 61 54 55 64 82 90 53 47 24 12 13 11 16 29 24 17 15 13 13 12 11 10 10 10 8 8 9 10 11 11 11 10 13 22 31 33 40
78 83 80 76 74 72 66 58 54 54 55 54 76 77 43 32 23 17 12 13 9 15 21 18 14 14 14 15 11 11 12 10 10 8 9 8 12 13 10 9 14 21 28 32 36
74 71 78 76 70 67 59 54 53 54 53 60 79 64 38 23 23 21 20 17 15 11 12 19 19 18 16 12 12 14 13 15 11 10 10 10 17 10 9 14 18 23 26 32 36
77 71 69 72 69 62 54 51 49 55 68 72 77 54 32 24 24 19 20 19 21 20 11 16 17 22 21 21 19 17 18 16 14 10 10 12 15 11 15 16 18 20 24 32 33
74 80 67 71 66 58 58 48 45 66 68 60 49 49 34 20 18 19 32 34 28 25 16 20 22 25 23 23 26 19 17 16 16 11 11 12 16 12 13 17 19 19 23 30 34
84 75 72 68 64 56 71 44 31 44 34 25 24 32 20 17 25 22 25 32 35 37 47 15 24 29 24 22 18 15 14 15 14 10 13 14 12 11 10 13 17 20 20 27 33
77 70 69 65 59 56 69 41 51 58 69 36 31 28 26 24 23 23 36 40 46 55 41 15 23 19 18 19 19 17 16 16 13 11 13 13 11 9 9 10 13 16 19 22 31
73 67 67 62 53 71 50 49 52 57 54 29 26 26 25 25 28 23 30 41 53 62 61 34 16 19 22 22 22 20 21 19 17 13 15 15 15 12 10 10 11 13 14 17 26
69 67 68 61 61 60 43 49 52 61 60 26 24 28 30 29 33 20 21 38 59 64 60 42 20 22 26 27 21 24 16 16 16 17 21 13 18 14 11 12 12 13 16 16 22
76 67 66 62 61 45 44 51 57 61 33 19 25 26 26 28 21 24 22 35 55 64 60 64 35 23 28 26 21 24 17 17 17 20 20 18 17 14 12 11 11 10 12 18 20
66 67 67 56 67 56 52 62 58 79 31 20 22 26 33 27 27 27 24 26 36 62 65 54 37 39 23 17 19 16 19 19 20 22 31 22 20 18 14 12 12 10 10 16 20
65 70 70 60 56 66 63 63 57 42 10 15 24 24 23 20 25 26 38 46 62 91 79 55 48 35 30 20 21 18 23 32 36 35 36 18 20 18 12 11 12 12 11 15 18
73 71 64 59 59 59 63 62 57 13 16 11 21 21 15 14 27 31 39 43 44 53 67 86 74 38 26 22 23 22 23 32 44 42 30 19 25 19 13 11 12 13 13 13 18
73 60 57 58 60 69 78 72 28 18 12 21 26 17 16 22 29 30 36 40 41 39 77 56 52 32 36 22 22 24 27 19 26 34 36 24 21 17 15 13 12 12 14 15 17
61 54 56 53 58 75 91 61 30 20 29 28 26 16 25 25 33 40 40 48 52 40 37 49 51 34 44 28 26 29 20 30 25 49 52 32 26 23 18 15 13 14 16 17 18
59 70 41 51 65 88 92 53 35 23 21 33 28 25 29 30 30 51 62 64 63 54 42 32 34 44 33 47 36 30 28 26 24 28 39 42 33 18 18 17 15 16 15 17 22
51 87 53 57 93 72 84 49 37 32 25 26 26 31 34 32 35 37 86 54 59 54 54 28 34 50 39 28 29 27 27 28 36 37 31 37 40 17 17 16 16 16 14 15 15
73 54 58 75 90 72 53 40 35 34 31 29 28 25 27 33 43 31 54 60 56 56 58 69 45 48 49 41 24 34 30 25 27 33 61 53 33 18 18 17 15 15 14 14 15
89 89 52 76 66 58 53 53 43 36 34 30 34 25 28 42 41 37 37 49 50 56 64 53 57 53 49 41 28 32 26 24 28 42 37 39 31 21 18 18 17 15 15 15 15
88 81 55 78 66 52 51 54 43 36 36 28 34 32 39 50 47 42 33 32 32 56 55 53 89 71 38 46 34 32 29 26 27 28 34 29 25 19 18 18 17 18 18 17 15
97 66 49 53 46 52 49 51 49 36 36 42 37 29 31 35 36 38 32 37 44 38 54 58 82 96 62 36 38 37 31 29 28 29 29 28 29 20 18 19 21 21 20 18 17
72 57 70 60 52 63 62 44 40 38 34 39 39 32 34 39 44 44 41 43 40 45 50 52 77 92 92 60 48 53 41 38 38 31 33 36 33 30 25 27 28 28 26 33 29

GFSSW_925_rhum_075.txt.gz
RH
92 92 94 95 89 89 87 76 62 57 56 57 56 48 41 33 24 32 46 28 26 22 21 24 19 28 30 34 23 20 28 30 24 20 16 11 12 11 10 10 11 12 15 37 47
95 94 93 94 92 82 75 80 70 57 53 52 54 49 41 35 50 59 30 28 22 16 20 20 18 26 37 32 27 24 27 24 17 15 15 11 11 12 13 13 14 16 45 47 46
86 91 93 92 92 92 84 72 60 55 54 52 55 60 47 46 61 29 22 10 12 12 10 28 15 15 34 31 28 24 25 17 16 14 13 13 12 10 11 14 13 20 44 44 41
70 82 92 95 94 91 84 68 59 52 51 50 56 74 49 70 25 18 15 18 13 22 41 32 22 19 25 31 24 27 19 17 14 13 12 13 11 11 11 13 11 10 18 41 43
69 67 76 93 94 94 74 64 57 51 44 48 60 94 69 52 39 13 17 21 15 27 33 31 26 22 28 24 24 24 19 14 12 12 11 11 12 12 12 11 11 12 29 31 43
71 66 70 82 92 88 66 61 50 42 41 46 74 96 90 65 14 15 16 17 16 11 14 23 28 22 25 24 23 20 18 16 14 12 10 11 11 12 12 12 11 11 37 39 38
74 83 66 71 83 69 60 54 47 36 36 43 69 98 79 63 14 10 15 20 19 21 14 11 11 18 27 29 20 20 23 18 16 13 12 10 15 14 12 11 12 13 23 39 40
81 73 68 66 68 66 59 51 38 30 37 51 70 95 81 25 18 27 23 21 20 20 21 14 11 14 26 28 27 30 23 27 18 15 13 14 18 14 12 12 12 12 16 36 42
62 77 73 72 70 64 57 43 35 42 49 58 85 92 75 32 34 21 23 20 20 18 19 15 16 18 30 38 40 32 36 31 21 14 14 14 16 12 12 12 15 16 22 35 43
63 73 70 72 69 57 52 40 42 47 48 71 68 82 61 37 17 16 17 23 30 25 24 22 25 24 41 48 53 43 37 29 24 17 15 16 15 12 14 16 17 19 21 36 41
79 68 66 66 64 54 46 56 49 54 44 52 52 60 42 27 22 14 15 24 30 34 45 34 31 34 32 40 37 35 34 34 23 16 17 18 15 14 14 14 22 23 21 33 40
67 64 65 66 58 46 52 74 46 45 69 45 43 40 33 28 29 23 17 27 35 51 44 47 44 33 28 30 32 34 35 33 26 21 21 22 25 16 15 16 16 22 24 28 42
66 72 64 69 59 57 62 61 49 47 80 51 34 34 32 28 32 28 22 22 40 46 48 56 47 42 46 30 38 37 38 31 29 23 23 21 21 17 15 14 14 19 19 24 40
72 74 66 60 61 63 59 49 52 50 89 49 34 22 24 26 33 21 20 20 49 54 64 80 62 62 63 46 36 52 37 31 27 32 60 36 37 24 17 16 15 14 21 25 39
73 74 69 60 68 70 54 65 55 57 96 32 28 20 24 31 25 24 18 20 52 55 67 61 72 67 78 53 37 45 41 43 48 63 61 52 36 26 20 20 17 14 21 24 38
79 72 77 61 62 62 64 60 64 91 86 31 29 30 31 30 29 26 23 25 32 48 54 56 44 63 69 48 41 49 57 48 60 64 84 58 42 32 24 21 19 14 18 21 39
74 75 79 81 73 60 62 68 94 89 29 21 37 33 35 29 33 35 32 43 59 71 73 53 54 50 58 66 52 54 67 90 91 94 90 39 38 28 24 18 16 18 20 25 40
84 85 77 80 71 64 68 93 95 44 25 15 19 19 19 17 19 28 36 46 43 50 63 71 80 59 54 66 64 54 87 84 92 87 56 31 38 28 19 16 15 13 22 27 40
84 91 81 67 59 65 94 96 66 34 23 23 20 18 21 20 20 27 42 46 39 39 67 68 66 51 50 53 62 74 96 62 83 60 91 59 26 21 18 17 17 16 18 30 40
86 99 85 66 63 69 97 82 55 35 32 34 33 24 26 20 26 30 50 73 62 48 45 58 86 50 47 64 69 69 56 83 99 93 93 60 52 34 23 21 19 17 20 21 34
97 100 62 51 58 89 95 79 55 42 40 36 33 31 32 34 35 28 69 82 57 52 49 54 87 67 70 93 94 86 93 91 88 89 77 90 76 55 42 28 24 27 26 28 34
98 99 48 54 91 97 87 63 50 50 40 42 37 32 35 36 38 36 45 68 55 51 74 80 95 91 62 49 56 60 89 86 99 83 64 67 80 49 34 26 25 25 22 22 27
100 93 55 55 97 91 76 63 58 57 51 41 38 32 31 34 41 35 56 55 57 60 69 70 95 96 63 48 39 69 75 74 84 85 94 91 73 51 29 25 22 25 26 26 29
100 95 80 96 99 88 78 69 63 45 46 38 36 32 35 41 36 37 40 61 55 60 71 68 74 80 88 86 96 99 91 70 81 99 80 74 57 58 55 37 31 31 32 32 33
100 96 82 99 95 97 84 92 76 59 42 37 42 35 38 45 46 47 40 67 58 68 71 80 97 80 76 65 75 76 83 94 78 85 96 73 56 70 60 56 47 41 40 40 41
99 94 76 98 89 100 70 68 72 66 69 60 47 39 46 44 38 44 48 55 61 76 75 76 91 84 78 56 74 83 81 89 88 73 79 74 76 70 60 64 46 44 43 44 46
97 80 89 76 69 95 97 77 57 46 43 46 73 77 74 64 64 56 57 60 59 66 95 82 81 90 93 76 88 100 85 90 78 76 76 91 74 72 75 52 47 49 45 46 52